TimeAST,TemperatureF,Dew PointF,Humidity,Sea Level PressureIn,VisibilityMPH,Wind Direction,Wind SpeedMPH,Gust SpeedMPH,PrecipitationIn,Events,Conditions,WindDirDegrees,DateUTC
12:56 AM,80.1,73.9,81,29.96,10.0,Calm,Calm,-,N/A,,Partly Cloudy,0,2013-09-08 04:56:00
1:56 AM,75.9,72.0,87,29.96,3.0,SW,4.6,19.6,0.32,Rain,Heavy Rain,220,2013-09-08 05:56:00
2:56 AM,75.0,71.1,87,29.95,10.0,South,8.1,-,0.06,Rain,Light Rain,180,2013-09-08 06:56:00
3:56 AM,75.0,71.1,87,29.91,10.0,Calm,Calm,-,0.02,,Scattered Clouds,0,2013-09-08 07:56:00
4:56 AM,75.9,70.0,82,29.88,10.0,SSE,3.5,-,N/A,,Scattered Clouds,160,2013-09-08 08:56:00
5:56 AM,75.9,68.0,76,29.88,10.0,ESE,6.9,-,N/A,,Scattered Clouds,120,2013-09-08 09:56:00
6:56 AM,75.9,70.0,82,29.90,10.0,Calm,Calm,-,N/A,,Scattered Clouds,0,2013-09-08 10:56:00
7:56 AM,78.1,69.1,74,29.93,10.0,South,4.6,-,N/A,,Scattered Clouds,180,2013-09-08 11:56:00
8:56 AM,84.0,71.1,65,29.95,10.0,South,8.1,-,N/A,,Scattered Clouds,170,2013-09-08 12:56:00
9:56 AM,86.0,72.0,63,29.95,10.0,SSE,9.2,-,N/A,,Scattered Clouds,150,2013-09-08 13:56:00
10:56 AM,87.1,73.0,63,29.95,10.0,SSE,8.1,-,N/A,,Scattered Clouds,160,2013-09-08 14:56:00
11:56 AM,88.0,73.9,63,29.95,10.0,SE,6.9,-,N/A,,Scattered Clouds,130,2013-09-08 15:56:00
12:56 PM,91.0,73.9,57,29.93,10.0,SSE,10.4,-,N/A,,Scattered Clouds,160,2013-09-08 16:56:00
1:56 PM,91.0,73.0,55,29.91,10.0,SE,11.5,16.1,N/A,,Scattered Clouds,140,2013-09-08 17:56:00
2:56 PM,90.0,73.0,57,29.88,10.0,SSE,6.9,-,N/A,,Scattered Clouds,160,2013-09-08 18:56:00
3:56 PM,91.9,73.0,54,29.88,10.0,SSE,9.2,-,N/A,,Scattered Clouds,160,2013-09-08 19:56:00
4:56 PM,88.0,73.0,61,29.88,10.0,SSE,5.8,-,N/A,,Scattered Clouds,150,2013-09-08 20:56:00
5:56 PM,86.0,73.9,67,29.90,10.0,South,5.8,-,N/A,,Scattered Clouds,170,2013-09-08 21:56:00
6:56 PM,84.9,73.9,69,29.92,10.0,SE,6.9,-,N/A,,Scattered Clouds,140,2013-09-08 22:56:00
7:56 PM,84.0,75.0,74,29.93,10.0,South,5.8,-,N/A,,Scattered Clouds,170,2013-09-08 23:56:00
8:56 PM,82.9,75.0,77,29.95,10.0,South,3.5,-,N/A,,Clear,170,2013-09-09 00:56:00
9:56 PM,82.9,75.0,77,29.97,10.0,SSE,4.6,-,N/A,,Partly Cloudy,160,2013-09-09 01:56:00
10:56 PM,82.0,75.0,79,29.97,10.0,SSE,4.6,-,N/A,,Partly Cloudy,150,2013-09-09 02:56:00
11:56 PM,82.0,75.0,79,29.98,10.0,ESE,3.5,-,N/A,,Partly Cloudy,120,2013-09-09 03:56:00